Retour au catalogue

STARLINK-3195

ActifCommunicationsVLEO
NORAD 49762·PAYLOAD·🇺🇸 United States

Lancé Dec 2, 2021 depuis Cape Canaveral Space Force Station

Loading…

Prochains Passages (prochaines 24 heures)

TLE

FraisSource: CelesTrak SupGP

Époque: Sep 15, 2026, 01:06 UTC

1 49762C 21115AQ  26258.04631944  .00012916  00000+0  38175-3 0  2585
2 49762  53.1612 354.8651 0001179  86.1648 165.3806 15.34373237    19

Suivez STARLINK-3195 en temps réel avec AllMySat

Download on the App Store